Showing default

OPS 9321 (IDSCS 8), 2645

Orbit data source: Space-Track

OPS 9321 (IDSCS 8), 2645 is a payload satellite owned by USAF SSD (US) in GEO that was launched on Wed, 18 Jan 1967 UTC via a TITAN IIIC launch vehicle from the Air Force Eastern Test Range (AFETR). Payload-class satellites include a variety of spacecraft equipped with specific instruments for various scientific and technological missions. These include communications satellites like Starlink; space stations such as the ISS; scientific satellites like the Hubble; Earth observation satellites from companies like Planet Labs, Umbra, and HawkEye 360; GPS; miniature CubeSats for education and research; and military/defense satellites.

Not visible in the next 10 days
Identifier
2645, 1967-003A
Orbit
GEO
Last TLE update
18 hours ago
Origin
Manufacturer
Philco-Ford WDL
Mission
Non-operational Defense Communications
Bus & Motor
IDCSP, Unknown motor
Mass
45 kg wet, 45 kg dry
Launch date (UTC)
1967-01-18 (58 years ago)
Launch vehicle
TITAN IIIC
Launch site
Air Force Eastern Test Range (AFETR)
Object type
Payload
Rocket body
Debris
Shape & HBR
Ico Poly, 0.9 m
Radar Cross Section
0.926 m², Medium (>0.1 m² and < 1m²)

Expand to show TLE details & history

TLE from 18 hours ago
0 OPS 9321 (IDSCS 8)
1 02645U 67003A   25128.49975358 -.00000059  00000-0  00000-0 0  9996
2 02645   7.5921  48.2136 0034541 110.0701 247.6198  1.08316591230066
Epoch: 2025-05-08T11:59Z
Definitive object data (Epoch: 2025-05-08T11:59:38.709Z)
Latitude
-0.33893°
Longitude
-0.91611°
Altitude
33,724.992 km
Speed
3.151 km/s
True Right ascension
03h 02m 15s
True Declination
0° 20' 19"
Sunlit
Object was in daylight at TLE epoch
Visualization TLE readout
Latitude
-7.40443°
Longitude
-75.59192°
Altitude
33,809.468 km
Speed
3.144 km/s
Apparent Right ascension
22h 24m 47s
Apparent Declination
-12° 09' 32"
Sunlit
Object is in daylight
Visualization observer readout
Local Sidereal Time
13:40:06
Azimuth
71.139° E
Elevation
-38.956°
Doppler factor
1
Orbital elements
Apogee altitude
33,811.546 km
Perigee altitude
33,534.863 km
Semi-major axis
40,051.341 km
Eccentricity
0.0034541
Inclination
7.5921°
RAAN
48.2136°
Arg. of periapsis
110.0701°
True anomaly
247.25441°
Mean anomaly
247.6198°
Eccentric anomaly
247.43704°
Mean motion
0.27078 °/min
BSTAR
Unknown
Orbital period
1329.49 mins
Loading historical data...
2645 neighbors
Loading maneuver chart data...
Loading SW <> Apogee altitude chart data...
Loading historical data...
Loading historical data...
Loading historical data...
Loading historical data...
Loading historical data...
Loading historical data...
Loading historical data...

OPS 9321 (IDSCS 8) Visibility forecast

Observer location: undefined°, undefined°

OPS 9321 (IDSCS 8) is not visible in the next 10 days
Span
Click to sort rows by Start time (UTC) header in descending order
Start Az.
Max El. time (UTC)
Max El. Az.
Max El.
End time (UTC)
End Az.
|